EUTELSAT 174A

Last updated on Sun Apr 12 2026 00:02:51 GMT+0000 (Coordinated Universal Time)

1 28924U 05052A 26101.33169873 .00000013 00000+0 00000+0 0 9999 2 28924 4.0494 77.3310 0006447 304.1112 111.5511 1.00269865 51662
UTC large
Height (km)
Speed (km/s)
/
Latitude / Longitude
Inclination (degrees)
Orbital Period (minutes)
Azimuth
Elevation
Range (km)
Doppler Factor

Next 0 passes for location: London (51.5072 / 0.1276)

Sorry there are no passes over London.
EUTELSAT 174A